Vertical_Velocity
-1 -1 -1 -1 0 -0 0 -1 -1 1 0 0 2 1 1 2 -2 -1 -3 -0 -2 0 1 -2 3 -1 2 -3 -2 -4 4 0 1 1 4 -0 2 -2 -4 2 -4 -1 -2 -1 -4
-3 -2 -3 -2 -2 -2 -0 0 -1 -1 -0 0 -0 -1 -2 -0 2 -2 -0 0 -1 -1 -2 0 1 5 1 -0 -2 4 1 2 2 1 1 -0 1 -0 3 -0 2 -1 -4 -3 -3
0 0 -0 -1 0 -0 0 -1 0 -1 -1 -0 0 -0 -1 -3 2 3 -0 -2 -0 -1 -2 1 -1 0 -2 -2 -1 -2 1 1 2 1 -0 -0 0 -1 2 2 3 3 -2 -3 -2
-1 -1 -0 -1 -1 -1 -0 -1 -0 0 -1 -1 -1 -2 -1 -4 10 -3 -1 -1 -2 -3 -3 1 0 2 -1 -0 -1 -4 0 0 1 -2 -1 1 -2 0 -2 5 -1 -1 -1 -2 -2
1 0 -0 0 -1 -2 -2 -1 -1 -1 -1 -1 -1 -2 -4 6 2 -1 -1 -2 -1 -1 -1 -1 0 1 1 -1 -0 -3 1 -1 -0 -2 -0 -2 1 3 1 -3 -2 -1 -0 -0 -3
-1 -1 -1 -0 -1 0 -1 -0 -1 -0 -1 -1 -1 -1 -3 1 -1 -2 -1 -2 -2 -1 -1 -4 1 1 -1 0 2 0 -0 0 -1 -0 -0 2 -0 0 -0 -2 -2 -0 0 -0 0
-0 1 1 -2 -1 -1 -0 -1 -2 -2 -3 -4 -3 -3 -1 -1 -2 -1 -1 -0 -1 -2 0 -1 -3 1 -2 0 -2 -0 1 2 0 -1 1 1 4 -1 -2 -2 2 0 -1 -0 -2
-1 -1 -1 -0 1 -0 -0 -1 -2 -2 -1 -1 -0 -4 1 -1 -0 -1 0 0 -1 -1 -2 -3 -4 -3 -0 -3 0 3 5 3 8 1 1 4 -12 4 -2 1 -1 -0 1 0 2
-0 0 0 1 -0 -1 -1 0 0 -0 0 -1 -2 -2 3 -1 -1 -1 -1 -1 -1 -2 -2 -3 -4 -2 -0 2 4 3 1 -1 -2 -1 1 6 -5 2 -1 -1 1 -0 -3 -3 -0
-1 -1 -1 -1 -0 -1 -1 -1 1 0 0 -1 0 6 -4 -1 -2 -2 -1 -2 -2 -1 -1 2 1 3 -3 -3 4 -0 -2 -4 1 3 2 -0 -7 -5 -2 -1 -0 -1 -0 -1 -2
-1 -1 -1 -1 -2 -1 -1 -0 -1 5 -8 0 -1 1 -2 0 -1 0 -2 -3 -2 0 0 -1 -1 1 3 2 2 2 2 2 -3 2 5 -2 -1 -4 2 -0 -0 1 1 0 -0
-1 -1 -0 -0 -2 -3 -0 -0 -1 -5 2 -1 -1 -1 -1 -1 2 -3 -3 3 -1 1 -1 6 1 3 0 0 2 0 2 -1 -0 -0 9 -2 -8 -4 1 -4 1 -1 -0 -0 -1
-0 0 -1 -0 0 -0 -3 -2 -1 -2 5 1 -1 -0 -0 -1 0 -2 -4 -2 1 -2 -0 1 6 -0 1 -1 -0 -2 3 -1 8 -4 -3 2 -2 1 4 2 -1 -0 -1 -0 -1
0 1 0 -1 -1 -1 -2 -1 -0 0 4 4 2 -1 1 -1 4 -0 -1 0 1 3 1 2 1 1 -1 1 4 1 2 2 1 3 3 2 -4 2 2 -0 1 0 -0 -1 -2
-2 -1 -2 -1 -0 -2 1 -1 -1 -2 1 5 -0 -2 -2 1 -0 4 -1 2 2 2 5 8 -0 -1 -0 3 2 -2 3 4 2 1 4 5 6 6 0 0 -1 -1 -0 1 1
-2 -1 -1 -0 -1 -1 -1 -1 -2 10 -4 2 -0 -1 -0 -3 -1 -2 1 -2 -5 1 1 2 -1 2 3 -1 1 -0 2 1 1 2 3 2 3 -7 2 2 -0 2 0 -1 -2
-1 -1 0 -1 -0 -1 -2 0 7 1 3 2 1 -1 1 -1 -2 -3 -1 -4 1 -1 -3 -3 1 0 1 1 3 -1 -4 -1 -1 1 2 0 2 -3 2 0 1 -1 -1 -1 -2
-0 -0 0 -0 -0 -1 -2 7 -0 2 1 2 0 -1 1 2 1 -1 -1 1 -1 -1 1 2 -1 1 1 3 6 1 5 4 2 2 -2 -0 -2 4 1 -1 -1 -1 -1 -0 -0
-2 0 -1 -1 -1 -0 1 -3 4 1 2 1 1 1 1 0 4 1 0 1 2 2 3 1 -1 2 -0 0 5 3 2 4 3 0 5 -2 -5 7 1 1 1 -1 0 -1 1
-3 -1 0 -1 -0 -1 2 1 1 -0 0 1 2 3 1 0 2 -0 0 3 1 0 1 2 -0 1 1 1 2 5 5 6 2 1 -3 -4 -2 -6 1 -1 -0 1 -2 -1 -1
-1 1 -3 -1 -2 1 1 2 0 -1 0 3 1 0 1 1 2 -0 1 3 0 1 -0 2 4 -3 5 2 3 3 1 2 5 2 3 1 -7 2 -1 -1 -1 -2 -2 -2 0
-3 4 -3 -3 6 -1 0 1 -2 0 -1 1 1 1 1 0 0 0 1 1 -2 -0 1 3 3 0 -3 2 -0 0 -1 2 4 -1 -2 4 -17 -1 -0 -0 0 -2 -1 1 1
3 -0 -2 0 3 1 1 1 0 1 -0 0 0 1 0 0 3 1 -0 -1 -0 0 1 2 0 -1 3 7 4 1 -1 0 2 3 -6 8 -12 1 0 0 -2 -2 -2 1 -1
1 4 -1 -3 -4 -0 0 0 1 -2 -0 -1 1 1 2 1 0 -1 -1 0 -1 0 -1 1 1 0 -0 2 8 1 -1 -1 5 6 -7 -11 -11 -12 -7 1 -2 2 9 -2 1
-1 0 -0 2 2 -0 0 0 0 1 -0 -1 1 1 -1 1 0 -0 -0 -1 1 -0 -0 4 1 5 -4 -1 3 2 2 -2 7 -10 14 -20 3 -8 -1 3 3 -1 -2 2 1
3 2 -3 -1 -2 1 0 -1 -0 0 2 0 3 -1 1 2 1 -0 7 3 2 4 1 0 -2 0 -4 -2 3 1 -2 0 -0 -3 2 3 -12 2 0 -3 -2 -0 -1 -2 0
1 -0 -1 -2 0 3 -2 -2 -2 -1 -1 -1 -0 3 3 -5 2 -4 1 -0 1 4 -0 1 0 1 -5 0 -1 0 -6 -1 -1 0 0 2 -15 0 -5 -1 1 -2 -1 -1 -0
Height
1554 1550 1548 1545 1542 1539 1536 1533 1532 1531 1531 1530 1530 1531 1531 1531 1531 1530 1528 1529 1526 1524 1522 1521 1521 1519 1519 1518 1518 1516 1511 1512 1517 1518 1520 1528 1527 1531 1532 1532 1534 1535 1536 1536 1531
1555 1552 1548 1546 1543 1540 1537 1534 1532 1531 1530 1530 1530 1531 1532 1533 1534 1532 1532 1529 1527 1525 1523 1523 1522 1520 1520 1520 1520 1515 1511 1518 1521 1522 1523 1529 1529 1532 1531 1532 1533 1536 1536 1534 1530
1555 1552 1549 1546 1543 1540 1537 1535 1533 1531 1530 1530 1531 1532 1534 1534 1536 1536 1532 1530 1528 1526 1525 1524 1523 1523 1521 1521 1522 1520 1518 1524 1527 1529 1530 1531 1533 1534 1532 1530 1537 1537 1535 1532 1529
1556 1553 1549 1546 1543 1540 1537 1535 1533 1532 1531 1531 1532 1533 1535 1536 1537 1536 1533 1531 1529 1527 1526 1526 1525 1524 1522 1521 1523 1526 1527 1527 1531 1533 1533 1532 1534 1536 1537 1540 1539 1538 1535 1532 1528
1557 1553 1549 1546 1543 1540 1537 1535 1534 1533 1533 1533 1534 1535 1536 1539 1541 1537 1534 1532 1530 1529 1528 1528 1527 1526 1524 1525 1524 1525 1530 1531 1533 1534 1534 1535 1535 1535 1537 1538 1537 1535 1534 1531 1527
1558 1554 1549 1546 1542 1539 1536 1536 1535 1535 1535 1536 1536 1537 1538 1540 1540 1538 1535 1534 1532 1531 1531 1530 1531 1530 1529 1530 1528 1530 1531 1532 1534 1534 1535 1534 1535 1537 1535 1535 1535 1534 1532 1530 1527
1558 1554 1550 1546 1542 1538 1536 1536 1536 1536 1537 1537 1538 1539 1540 1543 1540 1538 1536 1534 1534 1533 1533 1532 1531 1532 1532 1532 1534 1533 1532 1533 1532 1533 1532 1535 1531 1531 1532 1533 1533 1533 1532 1530 1527
1558 1555 1551 1547 1543 1538 1537 1538 1538 1538 1539 1539 1540 1540 1543 1542 1541 1539 1537 1536 1535 1534 1534 1533 1533 1534 1534 1536 1534 1530 1529 1524 1526 1531 1533 1535 1523 1524 1531 1533 1533 1534 1534 1532 1529
1558 1555 1552 1548 1544 1541 1539 1539 1540 1540 1541 1541 1542 1542 1545 1543 1543 1540 1538 1537 1536 1535 1534 1534 1534 1535 1535 1530 1526 1527 1525 1522 1521 1528 1530 1535 1521 1524 1530 1532 1533 1534 1533 1532 1531
1558 1555 1552 1549 1546 1544 1543 1542 1542 1543 1543 1543 1543 1546 1546 1547 1544 1541 1539 1538 1537 1536 1536 1536 1534 1528 1527 1528 1532 1532 1528 1523 1524 1526 1530 1527 1521 1520 1525 1530 1531 1532 1532 1531 1529
1558 1555 1552 1550 1548 1545 1545 1545 1548 1549 1546 1548 1550 1548 1548 1547 1545 1543 1539 1538 1538 1537 1534 1535 1532 1537 1538 1538 1538 1536 1531 1525 1517 1524 1530 1520 1513 1511 1518 1526 1529 1529 1530 1531 1531
1558 1555 1552 1550 1548 1546 1545 1545 1545 1549 1551 1550 1550 1549 1548 1547 1547 1544 1541 1541 1538 1536 1535 1534 1539 1542 1541 1540 1538 1532 1526 1520 1520 1526 1527 1515 1509 1506 1510 1521 1525 1529 1529 1529 1530
1558 1556 1553 1550 1549 1547 1545 1546 1546 1547 1548 1552 1551 1551 1551 1549 1548 1546 1544 1542 1541 1538 1538 1535 1541 1542 1541 1537 1536 1528 1529 1529 1531 1524 1514 1515 1495 1505 1513 1519 1525 1528 1528 1528 1526
1558 1556 1553 1551 1551 1547 1547 1546 1546 1547 1543 1553 1552 1552 1552 1549 1549 1548 1546 1546 1542 1542 1541 1539 1543 1542 1539 1537 1539 1532 1533 1534 1532 1529 1519 1519 1509 1499 1512 1518 1522 1525 1526 1526 1525
1558 1556 1553 1550 1550 1549 1549 1546 1547 1549 1561 1556 1554 1553 1551 1552 1553 1550 1548 1547 1546 1545 1544 1541 1541 1541 1537 1540 1541 1534 1532 1532 1532 1529 1524 1518 1520 1497 1508 1510 1513 1518 1523 1524 1524
1558 1556 1553 1552 1551 1550 1548 1547 1549 1550 1572 1555 1556 1555 1552 1553 1554 1552 1551 1549 1548 1546 1543 1544 1546 1545 1542 1541 1541 1538 1528 1519 1527 1527 1524 1514 1519 1499 1497 1504 1505 1513 1520 1523 1524
1558 1556 1554 1553 1552 1550 1548 1549 1548 1551 1558 1558 1559 1558 1557 1556 1554 1555 1554 1552 1552 1549 1543 1536 1540 1544 1546 1538 1538 1533 1527 1522 1522 1520 1513 1519 1522 1499 1503 1509 1511 1510 1516 1519 1519
1558 1556 1555 1553 1551 1549 1549 1550 1552 1559 1557 1562 1561 1558 1556 1558 1556 1553 1549 1549 1553 1552 1547 1547 1545 1542 1545 1545 1545 1539 1538 1537 1539 1523 1517 1511 1514 1497 1510 1512 1512 1511 1515 1517 1516
1558 1557 1556 1553 1551 1549 1551 1552 1557 1558 1563 1561 1558 1555 1553 1556 1558 1551 1553 1555 1558 1557 1556 1550 1540 1544 1546 1546 1546 1537 1535 1543 1540 1525 1535 1507 1498 1510 1508 1508 1509 1509 1510 1511 1512
1560 1558 1556 1554 1552 1551 1549 1559 1561 1564 1564 1563 1557 1559 1555 1554 1554 1551 1553 1558 1558 1560 1559 1554 1554 1542 1544 1548 1547 1544 1543 1539 1534 1532 1526 1497 1494 1492 1494 1497 1503 1505 1505 1507 1509
1560 1560 1558 1555 1553 1553 1554 1561 1563 1566 1567 1564 1560 1559 1558 1559 1558 1554 1554 1558 1559 1559 1560 1559 1558 1542 1541 1541 1541 1542 1537 1539 1537 1533 1527 1512 1491 1484 1489 1493 1496 1500 1501 1502 1503
1560 1560 1558 1555 1556 1557 1557 1562 1565 1565 1566 1566 1566 1564 1561 1561 1558 1557 1556 1555 1558 1559 1555 1559 1556 1552 1536 1536 1543 1543 1538 1535 1535 1528 1527 1525 1510 1489 1491 1495 1497 1497 1498 1499 1500
1562 1560 1558 1556 1552 1557 1564 1565 1565 1565 1566 1566 1564 1565 1565 1562 1561 1556 1556 1558 1558 1558 1556 1558 1554 1551 1528 1541 1543 1540 1537 1539 1535 1536 1532 1523 1496 1489 1494 1496 1495 1495 1494 1495 1497
1562 1559 1559 1557 1558 1558 1560 1561 1563 1565 1565 1565 1564 1565 1564 1560 1558 1555 1554 1554 1557 1558 1559 1560 1554 1548 1541 1531 1535 1534 1530 1531 1534 1533 1519 1506 1491 1485 1483 1485 1487 1488 1490 1491 1493
1563 1561 1561 1557 1560 1561 1562 1562 1561 1562 1564 1564 1562 1562 1560 1558 1557 1555 1553 1554 1553 1556 1557 1557 1553 1547 1541 1539 1536 1531 1524 1527 1526 1518 1521 1495 1498 1485 1486 1487 1488 1489 1489 1488 1491
1564 1563 1562 1562 1563 1562 1562 1559 1559 1560 1562 1560 1561 1559 1560 1559 1555 1554 1551 1550 1549 1552 1554 1557 1550 1549 1545 1534 1531 1527 1514 1516 1517 1512 1511 1500 1494 1491 1491 1491 1490 1490 1490 1489 1489
1559 1559 1560 1563 1563 1561 1555 1556 1557 1559 1557 1557 1558 1558 1557 1556 1555 1554 1551 1550 1548 1546 1550 1554 1554 1553 1538 1533 1536 1523 1500 1501 1502 1501 1500 1499 1486 1487 1488 1491 1491 1489 1489 1488 1488